Weather History for KSLI - November, 2012

Change the Weather History Date:

Thursday, November 8, 2012

  Actual Average Record
Temperature  
Mean Temperature 64 °F -  
Max Temperature 68 °F 72 °F 91 °F (1996)
Min Temperature 59 °F 56 °F 43 °F (2011)
Degree Days  
Heating Degree Days 2    
Growing Degree Days 14 (Base 50)    
Moisture  
Dew Point 59 °F    
Average Humidity 91    
Maximum Humidity 100    
Minimum Humidity 76    
Precipitation  
Precipitation 0.04 in - - ()
Sea Level Pressure  
Sea Level Pressure 29.95 in    
Wind  
Wind Speed 6 mph (SW)    
Max Wind Speed 13 mph    
Max Gust Speed -    
Visibility 10 miles    
Events Rain    
Averages and records for this station are not official NWS values.
T = Trace of Precipitation, MM = Missing Value Source: NWS Daily Summary

Daily Weather History Graph

Daily Weather History Graph

Search for Another Location

Airport or City:

Trip Planner

Search our weather history database for the weather conditions in past years. The results will help you decide how hot, cold, wet, or windy it might be!

Date:

Astronomy

Nov. 08, 2012 Rise Set
Actual Time 6:18 AM PST 4:53 PM PST
Civil Twilight 5:52 AM PST 5:19 PM PST
Nautical Twilight 5:22 AM PST 5:49 PM PST
Astronomical Twilight 4:52 AM PST 6:18 PM PST
Moon 12:34 AM PST (11/8) 1:22 PM PST (11/8)
Length of Visible Light 11h 27m
Length of Day
10h 35m
Waning Crescent, 32% of the Moon is Illuminated
Nov 8
Waning Crescent
Nov 13
New
Nov 20
First Quarter
Nov 28
Full
Dec 6
Last Quarter

Hourly Weather History & Observations

Time (PST) Temp. Dew Point Humidity Pressure Visibility Wind Dir Wind Speed Gust Speed Precip Events Conditions
12:58 AM 61.2 °F 58.3 °F 90% 29.99 in 10.0 mi SE 3.5 mph - N/A   Overcast
1:58 AM 61.2 °F 57.6 °F 88% 30.00 in 10.0 mi SSE 3.5 mph - N/A   Overcast
2:58 AM 61.2 °F 57.0 °F 86% 30.01 in 10.0 mi SE 3.5 mph - N/A   Overcast
3:58 AM 61.7 °F 57.7 °F 87% 30.06 in 10.0 mi SW 6.9 mph - 0.00 in Rain Light Rain
4:33 AM 60.8 °F 59.0 °F 94% 30.02 in 10.0 mi NE 3.5 mph - N/A Rain Light Rain
4:58 AM 60.4 °F 59.5 °F 97% 30.01 in 10.0 mi NE 6.9 mph - 0.00 in Rain Light Rain
5:42 AM 59.0 °F 59.0 °F 100% 29.95 in 10.0 mi ENE 10.4 mph - N/A Rain Light Rain
5:55 AM 59.0 °F 59.0 °F 100% 29.95 in 10.0 mi ENE 10.4 mph - N/A   Scattered Clouds
5:58 AM 59.0 °F 59.0 °F 100% 29.96 in 10.0 mi ENE 9.2 mph - 0.02 in   Scattered Clouds
6:36 AM 60.8 °F 59.0 °F 94% 29.97 in 10.0 mi Calm Calm - N/A Rain Light Rain
6:49 AM 60.8 °F 59.0 °F 94% 29.97 in 10.0 mi NNW 3.5 mph - N/A   Mostly Cloudy
6:56 AM 60.8 °F 59.0 °F 94% 29.97 in 10.0 mi Calm Calm - N/A   Light Drizzle
6:58 AM 60.1 °F 59.7 °F 99% 29.98 in 10.0 mi Variable 1.2 mph - 0.00 in   Light Drizzle
7:05 AM 60.8 °F 59.0 °F 94% 29.96 in 10.0 mi East 4.6 mph - N/A   Mostly Cloudy
7:58 AM 61.5 °F 61.2 °F 99% 30.00 in 10.0 mi WSW 8.1 mph - 0.00 in   Mostly Cloudy
8:11 AM 62.6 °F 60.8 °F 94% 29.99 in 10.0 mi WSW 5.8 mph - N/A Rain Light Rain
8:21 AM 62.6 °F 60.8 °F 94% 29.99 in 10.0 mi WSW 6.9 mph - N/A   Mostly Cloudy
8:27 AM 62.6 °F 60.8 °F 94% 29.99 in 10.0 mi WSW 9.2 mph - N/A Rain Light Rain
8:58 AM 62.1 °F 61.9 °F 99% 30.01 in 10.0 mi West 9.2 mph - 0.01 in Rain Light Rain
9:08 AM 62.6 °F 62.6 °F 100% 30.00 in 10.0 mi WSW 9.2 mph - N/A   Mostly Cloudy
9:58 AM 64.0 °F 60.3 °F 87% 30.00 in 10.0 mi West 3.5 mph - 0.00 in   Mostly Cloudy
10:33 AM 64.4 °F 60.8 °F 88% 29.98 in 10.0 mi WSW 2.3 mph - N/A   Overcast
10:58 AM 64.8 °F 59.7 °F 84% 29.98 in 10.0 mi SSE 3.5 mph - N/A   Mostly Cloudy
11:54 AM 68.0 °F 60.8 °F 78% 29.94 in 10.0 mi SW 10.4 mph - N/A   Overcast
11:55 AM 68.0 °F 60.8 °F 78% 29.94 in 10.0 mi SW 9.2 mph - N/A   Overcast
11:58 AM 68.0 °F 60.3 °F 76% 29.95 in 10.0 mi SW 10.4 mph - N/A   Overcast
12:27 PM 68.0 °F 60.8 °F 78% 29.92 in 10.0 mi South 11.5 mph - N/A   Mostly Cloudy
12:58 PM 66.7 °F 60.4 °F 80% 29.94 in 10.0 mi SSW 10.4 mph - N/A   Overcast
1:13 PM 66.2 °F 60.8 °F 83% 29.93 in 10.0 mi SW 11.5 mph - N/A   Overcast
1:18 PM 66.2 °F 60.8 °F 83% 29.93 in 10.0 mi SW 11.5 mph - N/A   Overcast
1:23 PM 66.2 °F 60.8 °F 83% 29.92 in 10.0 mi SSW 12.7 mph - N/A   Overcast
1:58 PM 65.5 °F 60.3 °F 83% 29.93 in 10.0 mi SW 11.5 mph - N/A   Overcast
2:58 PM 64.8 °F 59.7 °F 84% 29.92 in 10.0 mi SW 11.5 mph - N/A   Overcast
3:50 PM 62.6 °F 60.8 °F 94% 29.90 in 7.0 mi SW 8.1 mph - N/A   Light Drizzle
3:58 PM 62.6 °F 60.8 °F 94% 29.91 in 7.0 mi SSW 10.4 mph - N/A   Light Drizzle
4:40 PM 60.8 °F 60.8 °F 100% 29.89 in 7.0 mi SSE 3.5 mph - N/A   Overcast
4:58 PM 61.0 °F 61.0 °F 100% 29.90 in 7.0 mi South 4.6 mph - 0.00 in   Overcast
5:26 PM 60.8 °F 60.8 °F 100% 29.89 in 7.0 mi WSW 10.4 mph - N/A Rain Rain
5:45 PM 60.8 °F 60.8 °F 100% 29.89 in 7.0 mi SW 5.8 mph - N/A   Overcast
5:58 PM 60.6 °F 60.4 °F 99% 29.90 in 10.0 mi WSW 4.6 mph - 0.01 in   Overcast
6:58 PM 61.0 °F 61.0 °F 100% 29.90 in 10.0 mi WSW 5.8 mph - N/A   Overcast
7:58 PM 61.0 °F 60.6 °F 99% 29.90 in 10.0 mi WSW 4.6 mph - N/A   Overcast
8:18 PM 60.8 °F 60.8 °F 100% 29.90 in 10.0 mi WSW 6.9 mph - N/A   Light Drizzle
8:37 PM 59.0 °F 59.0 °F 100% 29.90 in 10.0 mi WSW 3.5 mph - N/A   Overcast
8:58 PM 59.5 °F 59.5 °F 100% 29.91 in 10.0 mi WSW 8.1 mph - 0.00 in   Overcast
9:58 PM 60.3 °F 55.8 °F 85% 29.91 in 10.0 mi WSW 9.2 mph - N/A   Overcast
10:03 PM 60.8 °F 55.4 °F 82% 29.90 in 10.0 mi WSW 8.1 mph - N/A   Overcast
10:58 PM 59.5 °F 55.2 °F 86% 29.91 in 10.0 mi SW 4.6 mph - N/A   Overcast
11:28 PM 60.8 °F 53.6 °F 77% 29.90 in 10.0 mi WSW 6.9 mph - N/A   Overcast
11:33 PM 60.8 °F 55.4 °F 82% 29.90 in 10.0 mi West 8.1 mph - N/A   Overcast
11:58 PM 59.9 °F 53.4 °F 79% 29.90 in 10.0 mi West 12.7 mph - N/A   Overcast